When you browse on this site, cookies collect data to enhance your experience and personalize the content and advertising you see.
Visit our Privacy Policy to learn more. By continuing to use the site, you agree to this use of cookies and data.
  • In Latvia
  • List of Countries
  • For 7 days
  • Water Temperature
  • Weather Map
  • Weather Widgets
  • user-avatar
    Login

    Hourly Weather Balahna

    Today, 14 December, Saturday

    Time Temperature Precipitation Wind Pressure Humidity
    00:00 -4°C° 0 mm 5 mps 742 mmHg 84%
    01:00 -4°C° 0 mm 5 mps 742 mmHg 84%
    02:00 -4°C° 0 mm 5 mps 743 mmHg 84%
    03:00 -4°C° 0 mm 5 mps 743 mmHg 84%
    04:00 -4°C° 0 mm 5 mps 742 mmHg 84%
    05:00 -4°C° 0 mm 5 mps 742 mmHg 83%
    06:00 -4°C° 0 mm 5 mps 742 mmHg 83%
    07:00 -4°C° 0 mm 5 mps 742 mmHg 82%
    08:00 -4°C° 0 mm 5 mps 742 mmHg 81%
    09:00 -4°C° 0 mm 5 mps 742 mmHg 81%
    10:00 -4°C° 0 mm 5 mps 742 mmHg 79%
    11:00 -4°C° 0 mm 5 mps 742 mmHg 77%
    12:00 -4°C° 0 mm 5 mps 742 mmHg 75%
    13:00 -4°C° 0 mm 5 mps 742 mmHg 76%
    14:00 -4°C° 0 mm 5 mps 742 mmHg 77%
    15:00 -4°C° 0 mm 5 mps 742 mmHg 77%
    16:00 -4°C° 0 mm 5 mps 742 mmHg 80%
    17:00 -5°C° 0 mm 5 mps 741 mmHg 83%
    18:00 -5°C° 0 mm 5 mps 741 mmHg 85%
    19:00 -5°C° 0 mm 6 mps 741 mmHg 86%
    20:00 -4°C° 0 mm 6 mps 741 mmHg 86%
    21:00 -4°C° 0 mm 6 mps 741 mmHg 86%
    22:00 -4°C° 0.2 mm 6 mps 741 mmHg 89%
    23:00 -3°C° 0.2 mm 6 mps 741 mmHg 91%

    Tomorrow, 15 December, Sunday

    Time Temperature Precipitation Wind Pressure Humidity
    00:00 -2°C° 0.2 mm 5 mps 740 mmHg 94%
    01:00 -2°C° 0.1 mm 5 mps 740 mmHg 94%
    02:00 -2°C° 0.1 mm 6 mps 740 mmHg 94%
    03:00 -2°C° 0.1 mm 6 mps 740 mmHg 95%
    04:00 -2°C° 0.3 mm 6 mps 740 mmHg 95%
    05:00 -2°C° 0.3 mm 6 mps 740 mmHg 95%
    06:00 -2°C° 0.3 mm 6 mps 739 mmHg 96%
    07:00 -2°C° 0.2 mm 6 mps 739 mmHg 96%
    08:00 -2°C° 0.2 mm 6 mps 739 mmHg 95%
    09:00 -2°C° 0.2 mm 6 mps 740 mmHg 95%
    10:00 -1°C° 0 mm 6 mps 739 mmHg 95%
    11:00 -1°C° 0 mm 6 mps 739 mmHg 95%
    12:00 -1°C° 0 mm 6 mps 739 mmHg 95%
    13:00 -1°C° 0 mm 6 mps 739 mmHg 95%
    14:00 -1°C° 0 mm 6 mps 738 mmHg 95%
    15:00 -1°C° 0 mm 6 mps 738 mmHg 95%
    16:00 -1°C° 0.1 mm 6 mps 738 mmHg 95%
    17:00 -1°C° 0.1 mm 6 mps 738 mmHg 95%
    18:00 -1°C° 0.1 mm 6 mps 738 mmHg 95%
    19:00 -1°C° 0.9 mm 6 mps 738 mmHg 96%
    20:00 0°C° 0.9 mm 5 mps 739 mmHg 96%
    21:00 +1°C° 0.9 mm 5 mps 739 mmHg 96%
    22:00 0°C° 0 mm 4 mps 739 mmHg 96%
    23:00 0°C° 0 mm 3 mps 740 mmHg 95%

    Day after tomorrow, 16 December, Monday

    Time Temperature Precipitation Wind Pressure Humidity
    00:00 0°C° 0 mm 3 mps 740 mmHg 95%
    01:00 -1°C° 0 mm 3 mps 740 mmHg 94%
    02:00 -1°C° 0 mm 3 mps 740 mmHg 94%
    03:00 -1°C° 0 mm 3 mps 741 mmHg 93%
    04:00 -2°C° 0 mm 4 mps 741 mmHg 92%
    05:00 -1°C° 0 mm 4 mps 741 mmHg 90%
    06:00 -1°C° 0 mm 5 mps 740 mmHg 89%
    07:00 -2°C° 0 mm 6 mps 740 mmHg 87%
    08:00 -1°C° 0 mm 6 mps 740 mmHg 86%
    09:00 -1°C° 0 mm 7 mps 740 mmHg 84%
    10:00 -1°C° 0 mm 7 mps 741 mmHg 84%
    11:00 -1°C° 0 mm 7 mps 741 mmHg 85%
    12:00 0°C° 0 mm 7 mps 741 mmHg 85%
    13:00 0°C° 0 mm 7 mps 741 mmHg 85%
    14:00 -1°C° 0 mm 6 mps 742 mmHg 85%
    15:00 -1°C° 0 mm 6 mps 742 mmHg 86%
    16:00 -1°C° 0 mm 6 mps 742 mmHg 85%
    17:00 -2°C° 0 mm 6 mps 742 mmHg 85%
    18:00 -2°C° 0 mm 6 mps 743 mmHg 84%
    19:00 -2°C° 0 mm 6 mps 743 mmHg 85%
    20:00 -3°C° 0 mm 6 mps 743 mmHg 85%
    21:00 -3°C° 0 mm 6 mps 743 mmHg 85%
    22:00 -3°C° 0 mm 6 mps 743 mmHg 85%
    23:00 -3°C° 0 mm 6 mps 744 mmHg 85%

    17 December, Tuesday

    Time Temperature Precipitation Wind Pressure Humidity
    00:00 -2°C° 0 mm 5 mps 744 mmHg 85%
    01:00 -4°C° 0 mm 5 mps 744 mmHg 86%
    02:00 -4°C° 0 mm 5 mps 744 mmHg 87%
    03:00 -4°C° 0 mm 5 mps 744 mmHg 87%
    04:00 -3°C° 0 mm 4 mps 745 mmHg 88%
    05:00 -3°C° 0 mm 4 mps 745 mmHg 88%
    06:00 -2°C° 0 mm 3 mps 745 mmHg 89%
    07:00 -2°C° 0 mm 3 mps 745 mmHg 89%
    08:00 -2°C° 0 mm 3 mps 745 mmHg 89%
    09:00 -2°C° 0 mm 3 mps 745 mmHg 88%
    10:00 -1°C° 0 mm 3 mps 745 mmHg 85%
    11:00 0°C° 0 mm 3 mps 745 mmHg 82%
    12:00 +1°C° 0 mm 2 mps 746 mmHg 78%
    13:00 +1°C° 0 mm 3 mps 745 mmHg 79%
    14:00 +1°C° 0 mm 3 mps 745 mmHg 81%
    15:00 +1°C° 0 mm 3 mps 744 mmHg 82%
    16:00 +1°C° 0 mm 3 mps 744 mmHg 84%
    17:00 -1°C° 0 mm 4 mps 744 mmHg 87%
    18:00 -1°C° 0 mm 4 mps 744 mmHg 89%
    19:00 -1°C° 0 mm 4 mps 743 mmHg 90%
    20:00 -1°C° 0 mm 4 mps 743 mmHg 91%
    21:00 -1°C° 0 mm 5 mps 743 mmHg 91%
    22:00 -1°C° 0 mm 5 mps 743 mmHg 93%
    23:00 -1°C° 0 mm 5 mps 743 mmHg 94%

    18 December, Wednesday

    Time Temperature Precipitation Wind Pressure Humidity
    00:00 -2°C° 0 mm 5 mps 743 mmHg 95%
    01:00 -2°C° 0 mm 5 mps 743 mmHg 96%
    02:00 -2°C° 0 mm 5 mps 743 mmHg 96%
    03:00 -1°C° 0 mm 5 mps 743 mmHg 96%
    04:00 -2°C° 0 mm 5 mps 743 mmHg 96%
    05:00 -2°C° 0 mm 4 mps 743 mmHg 96%
    06:00 -2°C° 0 mm 4 mps 743 mmHg 96%
    07:00 -2°C° 0 mm 4 mps 743 mmHg 95%
    08:00 -1°C° 0 mm 3 mps 743 mmHg 95%
    09:00 -1°C° 0 mm 3 mps 743 mmHg 94%
    10:00 0°C° 0 mm 3 mps 743 mmHg 92%
    11:00 +1°C° 0 mm 3 mps 743 mmHg 89%
    12:00 0°C° 0 mm 4 mps 743 mmHg 87%
    13:00 0°C° 0 mm 4 mps 742 mmHg 88%
    14:00 0°C° 0 mm 4 mps 742 mmHg 89%
    15:00 0°C° 0 mm 4 mps 741 mmHg 91%
    16:00 0°C° 0 mm 4 mps 741 mmHg 93%
    17:00 -1°C° 0 mm 4 mps 741 mmHg 94%
    18:00 -1°C° 0 mm 4 mps 741 mmHg 96%
    19:00 -1°C° 0 mm 4 mps 741 mmHg 97%
    20:00 0°C° 0 mm 4 mps 741 mmHg 97%
    21:00 0°C° 0 mm 4 mps 740 mmHg 97%
    22:00 0°C° 0 mm 4 mps 740 mmHg 97%
    23:00 0°C° 0 mm 4 mps 740 mmHg 97%

    19 December, Thursday

    Time Temperature Precipitation Wind Pressure Humidity
    00:00 0°C° 0 mm 4 mps 740 mmHg 97%
    01:00 0°C° 0 mm 4 mps 740 mmHg 96%
    02:00 0°C° 0 mm 4 mps 739 mmHg 96%
    03:00 0°C° 0 mm 4 mps 739 mmHg 96%
    04:00 -1°C° 0 mm 4 mps 738 mmHg 95%
    05:00 -1°C° 0 mm 4 mps 738 mmHg 95%
    06:00 -1°C° 0 mm 4 mps 738 mmHg 94%
    07:00 -1°C° 0 mm 4 mps 738 mmHg 95%
    08:00 -1°C° 0 mm 4 mps 738 mmHg 95%
    09:00 0°C° 0 mm 4 mps 738 mmHg 95%
    10:00 0°C° 0 mm 4 mps 738 mmHg 96%
    11:00 0°C° 0 mm 4 mps 738 mmHg 96%
    12:00 +1°C° 0 mm 3 mps 738 mmHg 97%
    13:00 +1°C° 0 mm 3 mps 737 mmHg 96%
    14:00 0°C° 0 mm 4 mps 737 mmHg 96%
    15:00 0°C° 0 mm 4 mps 736 mmHg 96%
    16:00 0°C° 0 mm 4 mps 736 mmHg 96%
    17:00 +1°C° 0 mm 4 mps 736 mmHg 95%
    18:00 +1°C° 0 mm 5 mps 736 mmHg 95%
    19:00 +1°C° 0.1 mm 5 mps 736 mmHg 95%
    20:00 +1°C° 0.1 mm 5 mps 736 mmHg 95%
    21:00 +1°C° 0.1 mm 5 mps 735 mmHg 95%
    22:00 +1°C° 0 mm 5 mps 735 mmHg 94%
    23:00 0°C° 0 mm 5 mps 735 mmHg 92%
    Show more